Weather in Nekrasovskoe

Russia / Yaroslavl Oblast     57°40′39″N   40°22′00″E
temp.,
°C
wind,
m/s
gust,
m/s
humid.,
%
clouds,
%
prec.,
mm/h
press.,
hPa
HPBL,
m
26 june, sun
sun2600:00+18nw237072 0.0 101938
03:00+19nnw2269100 0.0 102027
06:00+19ene23840 0.0 1021133
09:00+22e22680 0.0 1022497
12:00+24e11605 0.0 1022816
15:00+26wsw01595 0.0 1021927
18:00+25s11650 0.0 1020468
21:00+21sw33820 0.0 102025
27 june, mon
mon2700:00+19wsw46881 0.0 101990
03:00+18wsw49895 0.0 1018169
06:00+20wnw410850 0.1 1018283
09:00+24wnw57660 0.1 1018462
12:00+27nw57550 0.0 10181489
15:00+28nnw475539 0.0 10172555
18:00+22nne487367 0.2 1019226
21:00+19ne488639 0.2 1019177
28 june, tue
tue2800:00+15ne34784 0.0 102167
03:00+12ne47774 0.0 1023119
06:00+12ne49774 0.0 1024250
09:00+16ne56595 0.0 1024803
12:00+18nne56480 0.0 10241508
15:00+19nne45440 0.0 10241720
18:00+19ne35580 0.0 1024532
21:00+13ne33660 0.0 102531
29 june, wed
wed2900:00+10ne33690 0.0 102627
03:00+8ne22740 0.0 102623
06:00+11ne23740 0.0 1026113
09:00+16ne23590 0.0 1026538
12:00+19nne23470 0.0 10251411
15:00+21n13421 0.0 10241654
18:00+21nw13533 0.0 10221286
21:00+15nnw2270100 0.0 102219
30 june, thu
thu3000:00+12nnw237377 0.0 102220
03:00+11wnw33705 0.0 102242
06:00+13nw397790 0.0 1022213
09:00+19nw585734 0.0 1021624
12:00+23nnw584514 0.0 10191467
15:00+25nnw585122 0.0 10181934
18:00+23n37653 0.0 1017477
21:00+18n22809 0.1 101819